Погода в Юрьевеце

Погода в Юрьевеце : погода сейчас, прогноз погоды и архив. Всё, что Вы хотите узнать о погоде в Юрьевеце!

Хотите узнать прогноз погоды в Юрьевеце? Тогда Вам сюда: Погода в Юрьевеце

Поиск расширенной информации на нашем сайте:

Другие новости

Новости СМИ2

Главная страница сайта

Новости сайта

02.10.2013

Напоминаем, что на нашем новом сайте вы можете получить высокодетализированные прогнозы погоды по пунктам России, СНГ и мира (включающие важные для авиации метеовеличины, такие как направление и скорость ветра, видимость, явления погоды, количество и форма облачности, нижняя и верхняя граница облачности), а также ознакомиться с разнообразными материалами по авиационной метеорологии и подборкой полезных ссылок на эту тему.

Сайт Метеоцентр.Азия посвящён разработке технологий оптимизации авиаметеорологического обслуживания, включая проектирование и перспективное создание нескольких автоматизированных авиаметеорологических систем:
- система выпуска высокодетальных прогностических карт явлений погоды для нижнего воздушного пространства по России и ближнему зарубежью;
- система верификации прогнозов TAF (выпускаемых синоптиками официальных АМСГ РФ и ближнего зарубежья) и AUTOTAF (выпускаемых сайтом Метеоцентр.Азия) - выявление ошибок, онлайн-сопоставление с фактической погодой METAR, автоматическое внесение коррективов в прогнозы при резком отклонении фактической погоды от прогноза, подсчёт оправдываемости прогнозов по элементам и в целом;
- система обработки, анализа и отображения авиаметеорологической информации для применения провайдерами метеорологической информации.

Рекомендуем: http://krovat-divan.ru/ недорогие экологичные диван кровати.

Погода в Юрьевеце - сегодня

Время (UTC), дата Ветер
(°,м/с) 
Видим.   Явления Облачность Т
(°С)
Тd
(°С)
f(%) Тe
(°С)
Pmin
(гПа)
dP
(гПа)
Po
(мм)
O2
(г/м3)
Тmin Tmax R s Состояние
почвы
06 21.03.17 150 (ЮВ) 4000 м  дымка{снег}  10/10 300 м 
[Sc]
+1.6 +0.6 93 1014.8  0.7  749  300           
09 21.03.17 150 (ЮВ) 4000 м  дымка  10/10 300 м 
[Sc]
+2.9 +0.5 84 +2  1015.2  0.5  749  299           
12 21.03.17 150 (ЮВ) 10 км    10/10 300 м 
[Sc]
+5.2 -0.6 66 +4  1014.8  -0.3  749  296           
15 21.03.17 150 (ЮВ) 10 км    9/9 300 м 
[Sc]
+4.6 -2.1 62 +3  1015  -0.1  749  297    +5.7  0.0     
18 21.03.17 160 (Ю) 10 км    10/10 300 м 
[Sc]
+3 -2.1 69 +1  1016.1  1.1  750  299           
21 21.03.17 160 (Ю) 10 км    10/10 300 м 
[Sc]
+2.2 -1.3 78 +1  1017.1  0.9  750  300           
00 22.03.17 170 (Ю) 10 км    10/10 300 м 
[Sc]
+2.1 -0.7 82 +1  1018  0.9  751  300           
03 22.03.17 160 (Ю) 10 км    10/10 300 м 
[Sc]
+2.1 -0.4 84 +1  1019.1  752  301  +1.9      13  равномерный
мокрый или
старый снег
100% 
06 22.03.17 160 (Ю) 10 км  дымка  10/0 средняя 
[Ac und]
+3 +0.2 82 +2  1019.8  0.8  752  300           
09 22.03.17 170 (Ю) 20000 м    8/0 средняя 
[Ac trans]
+7.2 +0.6 63 +6  1019.1  -0.4  752  295           
12 22.03.17 150 (ЮВ) 20000 м    6/0 средняя 
[Ac trans]
+8.2 +0.7 59 +8  1018.6  -0.5  752  294           
15 22.03.17 150 (ЮВ) 10 км    10/0 средняя 
[Ac und]
+6.9 +0.5 64 +6  1018  -0.6  751  295    +8.5       
18 22.03.17 160 (Ю) 10 км    10/10 300 м 
[Sc]
+5.8 +0.4 68 +5  1017.6  -0.5  751  296           
21 22.03.17 160 (Ю) 10 км    10/10 300 м 
[Sc]
+3.9 -0.3 74 +3  1017.1  -0.7  751  298           
00 23.03.17 160 (Ю) 10 км    10/10 300 м 
[Sc]
+3.2 -0.5 77 +2  1015.7  -1.4  749  299           
03 23.03.17 170 (Ю) 4000 м  слаб. дождь  10/10 300 м 
[Sc]
+2.1 +0.3 88 +1  1014.8  -0.9  749  299  +2.1    0.3  11  мокрый или
старый снег
50-90% 
06 23.03.17 270 (З) 4000 м  слаб. снег{дождь}  10/10 300 м 
[Frnb|Ns]
+0.5 -0.5 93 1016.3  1.3  750  302  +0.5         
09 23.03.17 270 (З) 10 км  {снег}  10/10 300 м 
[Sc]
+2.2 +0.9 91 +2  1017.1  0.9  750  300           
12 23.03.17 280 (З) 10 км  {снег}  8/6 300 м средняя 
[Sc|Ac trans]
+5.1 -0.5 67 +4  1017.4  0.5  751  297           
15 23.03.17 220 (ЮЗ) 10 км    10/10 300 м 
[Sc]
+4.7 -0.1 71 +6  1018.1  0.7  751  298    +6.5     
18 23.03.17 180 (Ю) 10 км    3/3 300 м 
[Sc]
+2.9 -0.5 78 +2  1018.7  0.4  752  300           
21 23.03.17 260 (З) 10 км    ясно 
+1.9 -1.2 80 1019.3  0.6  752  301           
00 24.03.17 270 (З) 10 км    8/8 300 м 
[Sc]
+0.2 -1.3 90 -2  1020.1  0.6  753  303           
03 24.03.17 240 (ЮЗ) 10 км    3/3 300 м 
[Sc]
-0.5 -1.8 91 -1  1020.6  0.5  753  304  -0.6      мокрый или
старый снег
50-90% 
06 24.03.17 230 (ЮЗ) 10 км    4/0 верхняя 
[Ci sp]
+2.3 -2.3 72 +2  1020.1  -0.4  753  301  -0.7         
Время (UTC), дата Ветер
(°,м/с) 
Видим.   Явления Облачность Т
(°С)
Тd
(°С)
f(%) Тe
(°С)
Pmin
(гПа)
dP
(гПа)
Po
(мм)
O2
(г/м3)
Тmin Tmax R s Состояние
почвы

Для получения пояснительной информации подведите курсор к названию столбца.

ПОГОДА в Юрьевеце - архив

Всё, что Вы хотите узнать о погоде в Юрьевеце - удобно и подробно!

Выберите нужную дату (начиная с 1 января 2015* года) и нажмите кнопку "Найти".
Будут отображены архивные сводки погоды по пункту Юрьевец, начиная с указанной даты.


Отображать данные в формате CSV (для использования в таблицах Excel)


Внимание! Наш архив погоды предназначен исключительно для личного некоммерческого использования в познавательных целях. Если Вам необходимы официальные справки о состоянии погоды (для производственных, юридических, коммерческих и т.п. целей), обращайтесь в органы Росгидромета.

*Примечание: данная дата относится к архиву по метеостанциям СССР (Россия, СНГ, Балтия).
Архив по метеостанциям Зарубежной Европы и Азии (кроме Китая) хранится 10 дней, по другим регионам земного шара (Китай, Африка, Америка, Австралия, Океания) - 1 день.

Юрьевец - район местоположения метеостанции


Название, широта, долгота, высота метеостанции:
Юрьевец 57.3°ш. 43.1°д. 132 м над ур. моря [Российская Федерация]

Дополнительная информация

В oтличие oт бoльшинства пoгoдных сайтoв мы публикуем пoдрoбную метеoинфoрмацию в детальнoм прoфессиoнальнoм фoрмате.

Характеристики температуры и влажнoсти вoздуха измеряются на высoте 2 м в тени вдали oт зданий и деревьев.
Скoрoсть ветра измеряется на высoте 10 м (на урoвне рoста челoвека скoрoсть ветра ниже в 1.5-2 раза). Если метеoстанция нахoдится в гoрoде или в лесу, тo скoрoсть ветра занижена на 2-4 м/с пo сравнению с oткрытым местoм. Скoрoсть ветра над акватoриями крупных рек и oзёр, а также на вершинах хoлмoв на 2-5 м/с выше, чем в oбычных услoвиях.
Атмoсфернoе давление в разных тoчках местнoсти мoжет значительнo oтличаться oт давления на метеoстанции, в зависимoсти oт услoвий рельефа (при пoдъёме на 10 м давление пoнижается примернo на 1 мм рт.ст.).